sat.trackr.live / text

‹ back to catalog

TRANSPORTER-16 OBJECT A

NORAD 68416 · 2026-067A

PAYLOAD ACTIVE UNKNOWN

§ Identity

Operator
Country
TBD
Launch date
2026-03-30
Launch site
AFWTR
Launch vehicle
Mass (kg)
RCS (m²)

External: N2YO · Heavens-Above · Gunter

§ Orbital elements

Epoch: 2026-05-24T20:13:47.785152Z

Period
94.79 min
Inclination
97.4529°
Eccentricity
0.0002844
Mean motion
15.19133960 rev/d
Perigee alt
506.5 km
Apogee alt
510.4 km
Semi-major
6,886.6 km
B*
3.0419e-4
RAAN
103.7213°
Arg perigee
41.2033°
Mean anomaly
318.9416°
Rev number
840

§ Raw data

TRANSPORTER-16 OBJECT A1 68416U 26067A   26144.84291418  .00006323  00000+0  30419-3 0  99932 68416  97.4529 103.7213 0002844  41.2033 318.9416 15.19133960  8403

JSON: /api/v1/satellites/68416 · /tle

For live sub-satellite position, see the globe view (requires WebGL).

§ Visibility from observer

Set your observer location to see the next 7 days of passes ≥ 10°. The values pass through the URL so the page stays shareable.

No JS? Fill the form by hand. The geolocation button needs JavaScript.

§ Radio — SatNOGS DB

ModeDescriptionDownlinkUplink
CW Mode U - CW (interval 5min) (20 wpm, Time Unit = 60 ms, Dot = 60 ms , Dash = 180 ms, Element Gap = 60ms , Gap btw Chars = 180 ms) 400.500 MHz
FSK UHF Telemetry | BFSK | Mod Index 1 | Data Rate 50 kbps 400.500 MHz

2 transmitters · refreshed weekly from db.satnogs.org